Location: ??? ?????
(30.6482°N, 60.5850°E)
Time: 07:39:36
(UTC+00:00)

Ariane Rocket - Pass Details

Date: 09 April 2020
Orbit: 761 x 769 km, 98.7° (Epoch: 25 May)

Event Time Altitude Azimuth Distance (km) Brightness Sun altitude
Exits shadow 15:01:54 - 148° (SSE) 3,034 5.7 -9.2°
Reaches altitude 10° 15:03:50 10° 143° (SE) 2,294 5.0 -9.6°
Maximum altitude 15:08:34 43° 73° (ENE) 1,072 3.4 -10.6°
Drops below altitude 10° 15:13:20 10° 3° (N) 2,300 5.7 -11.6°
Sets 15:15:43 0° 357° (N) 3,228 6.5 -12.1°
